Weather in Stakhanovo

Russia / Lipetsk Oblast     52°39′41″N   37°55′47″E
temp.,
°C
wind,
m/s
gust,
m/s
humid.,
%
clouds,
%
prec.,
mm/h
press.,
hPa
HPBL,
m
23 september, thu
thu2300:00+8ssw2389100 0.1 1013235
03:00+7s2390100 0.1 1013179
06:00+7ssw2290100 0.0 101393
09:00+8s2382100 0.1 1013337
12:00+11ssw2367100 0.2 10131069
15:00+10sw3368100 0.5 1012874
18:00+9ssw247890 0.0 1012278
21:00+7sw258777 0.0 1012131
24 september, fri
fri2400:00+8ssw3583100 0.1 1011309
03:00+7s378790 0.1 1010308
06:00+5s379592 0.1 1009214
09:00+8s5880100 0.3 1008691
12:00+9s7116971 0.3 10061399
15:00+10s91160100 0.4 10041442
18:00+8s71182100 0.4 10041216
21:00+7sse61292100 1.6 1004841
25 september, sat
sat2500:00+8sse51094100 0.8 1003674
03:00+8sse4796100 1.0 1004398
06:00+8sse249798 0.0 1005263
09:00+9s238699 0.1 1006460
12:00+12ssw237463 0.1 1007835
15:00+13wsw336585 0.4 1008937
18:00+11wsw227892 0.3 100921
21:00+10wsw3879100 0.6 1009242
26 september, sun
sun2600:00+10wsw3786100 0.0 1009294
03:00+9sw3794100 0.2 1009405
06:00+9wsw3796100 2.4 1008474
09:00+9wnw489499 2.6 1008528
12:00+11nw797776 0.4 1009964
15:00+10nw6107990 1.1 1011909
18:00+9nnw6118380 0.5 1012780
21:00+8nnw6128775 0.7 1013638
27 september, mon
mon2700:00+8nnw71291100 0.2 1014723
03:00+8n6119297 0.4 1016559
06:00+8n599496 0.0 1018443
09:00+9n6889100 0.1 1019434
12:00+10nne5682100 0.0 1021535
15:00+11nne4677100 0.0 1022587
18:00+9n368638 0.0 1023144
21:00+7n37915 0.0 1024167